Location: Le Castellard
(44.1862°N, 6.1301°E)
Time: 18:42:54
(UTC+00:00)

STARLINK-81 - Pass Details

Date: 18 January 2020
Orbit: 528 x 531 km, 53.0° (Epoch: 28 February)

Event Time Altitude Azimuth Distance (km) Brightness Sun altitude
Rises 06:12:20 0° 225° (SW) 2,656 6.9 -9.7°
Reaches altitude 10° 06:14:33 10° 222° (SW) 1,770 6.0 -9.3°
Maximum altitude 06:18:31 62° 142° (SE) 598 4.1 -8.6°
Drops below altitude 10° 06:22:31 10° 61° (ENE) 1,782 6.8 -7.9°
Sets 06:24:45 0° 58° (ENE) 2,676 7.7 -7.6°
